Simultaneous Nadir Overpasses (SNOs) Predictions

Prediction of SNOs between METOP-B and TERRA Satellite Orbit:

Table of predicted SNOs for the next 14.0 days since TLE Epoch: 5/11/2024
Index Date (METOP-B) Time (METOP-B) Lat,Lon (METOP-B) SZA (METOP-B ) Date (TERRA) Time (TERRA) Lat,Lon (TERRA) SZA (TERRA ) Distance(km) Time Diff (sec)
1 05/13/2024 00:48:47 -80.17, 9.20 117.56 05/13/2024 00:49:34 -80.17, 9.13 117.56 1.62 47
2 05/13/2024 01:39:23 80.30, 177.94 62.65 05/13/2024 01:38:51 80.30, 177.97 62.65 0.74 32
3 05/15/2024 16:09:36 80.24, -40.30 61.93 05/15/2024 16:09:39 80.24, -40.31 61.93 0.28 3
4 05/15/2024 16:59:05 -81.40, 153.06 114.66 05/15/2024 16:57:52 -81.86, 152.33 114.49 52.04 73
5 05/18/2024 06:39:51 80.13, 100.99 61.17 05/18/2024 06:40:26 80.14, 101.10 61.19 2.19 35
6 05/18/2024 07:30:26 -80.30, -89.81 118.56 05/18/2024 07:29:43 -80.30, -89.86 118.58 1.16 43
7 05/20/2024 21:10:03 80.10,-116.97 60.56 05/20/2024 21:11:08 80.10,-116.90 60.59 1.50 65
8 05/20/2024 22:00:38 -80.27, 52.25 119.16 05/20/2024 22:00:25 -80.27, 52.17 119.17 1.48 13
9 05/23/2024 12:30:52 -80.16,-166.49 119.85 05/23/2024 12:31:06 -80.17,-166.41 119.84 1.62 14



Historial Predications of SNOs between METOP-B and TERRA
